Retour au catalogue

STARLINK-38048

ActifCommunicationsSSO
NORAD 69754·PAYLOAD·🇺🇸 United States

Lancé Jul 2, 2026 depuis Vandenberg Space Force Base

Loading…

Prochains Passages (prochaines 24 heures)

TLE

FraisSource: CelesTrak SupGP

Époque: Sep 14, 2026, 23:23 UTC

1 69754C 26150R   26257.97479167  .00076901  00000+0  23874-2 0  2572
2 69754  97.2844  97.0005 0001781  93.7002 150.2071 15.33396088    19

Suivez STARLINK-38048 en temps réel avec AllMySat

Download on the App Store